BEIDOU-3 M24 (C46)

Last updated on Jan. 22, 2021, 6:27 a.m. UTC

1 44543U 19061B   21021.35049313  .00000047  00000-0  10000-3 0  9996
2 44543  54.7656 249.5076 0005867 337.2415 204.2811  1.86231879  9056
UTC
Height (km)
Latitude
Longitude
Inclination
Orbital Period
UTC large
Height (km)
Speed (km/s)
/
Latitude / Longitude
Inclination (degrees)
Orbital Period (minutes)
Azimuth
Elevation
Range (km)
Doppler Factor
iOS Compass Heading
iOS Angle

Next 30 passes for location: Hong Kong

Rise time Rise Azimuth (degrees) Set time Set Azimuth (degrees) Duration Max altitude (degrees)

No matching passes for this satellites